Location: *
(30.4476°N, 114.3798°E)
Time: 20:06:49
(UTC+00:00)

GEOS 3 Rocket - Pass Details

Date: 09 April 2020
Orbit: 774 x 845 km, 115.0° (Epoch: 29 May)

Event Time Altitude Azimuth Distance (km) Brightness Sun altitude
Exits shadow 12:42:51 46° 181° (S) 1,054 4.0 -24.7°
Maximum altitude 12:44:13 64° 240° (WSW) 874 3.8 -24.9°
Drops below altitude 10° 12:49:20 10° 321° (NW) 2,380 6.9 -25.9°
Sets 12:51:41 0° 325° (NW) 3,325 7.8 -26.3°
